TimeEDT,TemperatureF,Dew PointF,Humidity,Sea Level PressureIn,VisibilityMPH,Wind Direction,Wind SpeedMPH,Gust SpeedMPH,PrecipitationIn,Events,Conditions,WindDirDegrees,DateUTC
12:15 AM,64.4,64.4,100,30.10,6.0,Calm,Calm,-,N/A,,Clear,0,2012-10-25 04:15:00
12:35 AM,64.4,64.4,100,30.09,7.0,Calm,Calm,-,N/A,,Clear,0,2012-10-25 04:35:00
12:55 AM,64.4,62.6,94,30.10,6.0,Calm,Calm,-,N/A,,Clear,0,2012-10-25 04:55:00
1:15 AM,64.4,62.6,94,30.09,5.0,Calm,Calm,-,N/A,,Clear,0,2012-10-25 05:15:00
1:35 AM,64.4,62.6,94,30.09,5.0,Calm,Calm,-,N/A,,Partly Cloudy,0,2012-10-25 05:35:00
1:55 AM,64.4,64.4,100,30.09,6.0,Calm,Calm,-,N/A,,Mostly Cloudy,0,2012-10-25 05:55:00
2:15 AM,64.4,64.4,100,30.08,8.0,NE,3.5,-,N/A,,Mostly Cloudy,40,2012-10-25 06:15:00
2:35 AM,66.2,64.4,94,30.08,8.0,Calm,Calm,-,N/A,,Mostly Cloudy,0,2012-10-25 06:35:00
2:55 AM,66.2,64.4,94,30.07,8.0,Calm,Calm,-,N/A,,Partly Cloudy,0,2012-10-25 06:55:00
3:15 AM,66.2,64.4,94,30.07,7.0,Calm,Calm,-,N/A,,Clear,0,2012-10-25 07:15:00
3:35 AM,64.4,64.4,100,30.06,7.0,Calm,Calm,-,N/A,,Scattered Clouds,0,2012-10-25 07:35:00
3:55 AM,66.2,64.4,94,30.06,7.0,Calm,Calm,-,N/A,,Scattered Clouds,0,2012-10-25 07:55:00
4:15 AM,64.4,64.4,100,30.05,6.0,NNE,3.5,-,N/A,,Clear,30,2012-10-25 08:15:00
4:35 AM,66.2,64.4,94,30.05,7.0,NNE,3.5,-,N/A,,Scattered Clouds,20,2012-10-25 08:35:00
4:55 AM,66.2,66.2,100,30.06,10.0,NNE,3.5,-,N/A,,Mostly Cloudy,30,2012-10-25 08:55:00
5:15 AM,66.2,66.2,100,30.06,8.0,Calm,Calm,-,N/A,,Mostly Cloudy,0,2012-10-25 09:15:00
5:35 AM,66.2,66.2,100,30.06,7.0,NNE,3.5,-,N/A,,Partly Cloudy,30,2012-10-25 09:35:00
5:55 AM,66.2,66.2,100,30.06,8.0,NNE,3.5,-,N/A,,Clear,30,2012-10-25 09:55:00
6:15 AM,66.2,66.2,100,30.07,8.0,Calm,Calm,-,N/A,,Scattered Clouds,0,2012-10-25 10:15:00
6:35 AM,66.2,66.2,100,30.07,9.0,Calm,Calm,-,N/A,,Mostly Cloudy,0,2012-10-25 10:35:00
6:55 AM,66.2,66.2,100,30.07,10.0,Calm,Calm,-,N/A,,Scattered Clouds,0,2012-10-25 10:55:00
7:15 AM,68.0,66.2,94,30.07,10.0,Calm,Calm,-,N/A,,Partly Cloudy,0,2012-10-25 11:15:00
7:35 AM,66.2,66.2,100,30.07,8.0,Calm,Calm,-,N/A,,Clear,0,2012-10-25 11:35:00
7:55 AM,66.2,66.2,100,30.07,7.0,Calm,Calm,-,N/A,,Clear,0,2012-10-25 11:55:00
8:15 AM,68.0,66.2,94,30.08,8.0,NE,3.5,-,N/A,,Scattered Clouds,40,2012-10-25 12:15:00
8:35 AM,69.8,66.2,88,30.08,9.0,NNE,3.5,-,N/A,,Mostly Cloudy,30,2012-10-25 12:35:00
8:55 AM,71.6,68.0,88,30.08,9.0,NNE,3.5,-,N/A,,Scattered Clouds,30,2012-10-25 12:55:00
9:15 AM,71.6,68.0,88,30.09,9.0,NE,5.8,-,N/A,,Clear,50,2012-10-25 13:15:00
9:55 AM,75.2,68.0,78,30.09,10.0,NE,6.9,-,N/A,,Partly Cloudy,50,2012-10-25 13:55:00
10:15 AM,75.2,68.0,78,30.09,10.0,East,8.1,-,N/A,,Scattered Clouds,80,2012-10-25 14:15:00
10:35 AM,78.8,68.0,69,30.09,10.0,ENE,5.8,-,N/A,,Partly Cloudy,60,2012-10-25 14:35:00
10:55 AM,78.8,66.2,65,30.09,10.0,ENE,6.9,-,N/A,,Clear,60,2012-10-25 14:55:00
11:35 AM,78.8,66.2,65,30.09,10.0,ENE,8.1,-,N/A,,Clear,70,2012-10-25 15:35:00
11:55 AM,78.8,66.2,65,30.08,10.0,ENE,6.9,19.6,N/A,,Partly Cloudy,60,2012-10-25 15:55:00
12:15 PM,80.6,66.2,61,30.08,10.0,ENE,8.1,-,N/A,,Partly Cloudy,70,2012-10-25 16:15:00
12:35 PM,80.6,66.2,61,30.07,10.0,NE,9.2,16.1,N/A,,Scattered Clouds,50,2012-10-25 16:35:00
12:55 PM,80.6,66.2,61,30.06,10.0,ENE,6.9,19.6,N/A,,Scattered Clouds,70,2012-10-25 16:55:00
1:35 PM,80.6,66.2,61,30.06,10.0,ENE,5.8,19.6,N/A,,Scattered Clouds,60,2012-10-25 17:35:00
1:55 PM,80.6,66.2,61,30.05,9.0,East,11.5,24.2,N/A,,Scattered Clouds,80,2012-10-25 17:55:00
2:15 PM,80.6,66.2,61,30.05,10.0,East,4.6,18.4,N/A,,Partly Cloudy,80,2012-10-25 18:15:00
2:35 PM,80.6,66.2,61,30.04,10.0,NE,6.9,20.7,N/A,,Partly Cloudy,50,2012-10-25 18:35:00
2:55 PM,80.6,66.2,61,30.04,10.0,ENE,9.2,19.6,N/A,,Clear,60,2012-10-25 18:55:00
3:15 PM,80.6,66.2,61,30.04,9.0,East,6.9,16.1,N/A,,Scattered Clouds,80,2012-10-25 19:15:00
3:35 PM,78.8,66.2,65,30.04,10.0,ENE,8.1,-,N/A,,Scattered Clouds,60,2012-10-25 19:35:00
3:55 PM,78.8,68.0,69,30.04,9.0,ENE,10.4,17.3,N/A,,Scattered Clouds,70,2012-10-25 19:55:00
4:15 PM,78.8,66.2,65,30.04,10.0,NE,8.1,18.4,N/A,,Partly Cloudy,40,2012-10-25 20:15:00
4:35 PM,78.8,66.2,65,30.04,10.0,ENE,8.1,-,N/A,,Clear,70,2012-10-25 20:35:00
4:55 PM,78.8,66.2,65,30.04,10.0,NE,8.1,17.3,N/A,,Clear,50,2012-10-25 20:55:00
5:15 PM,77.0,66.2,69,30.04,10.0,ENE,6.9,-,N/A,,Clear,70,2012-10-25 21:15:00
5:35 PM,77.0,66.2,69,30.04,10.0,NE,10.4,17.3,N/A,,Partly Cloudy,50,2012-10-25 21:35:00
5:55 PM,75.2,66.2,73,30.04,10.0,NE,9.2,-,N/A,,Scattered Clouds,50,2012-10-25 21:55:00
6:15 PM,75.2,68.0,78,30.05,10.0,Calm,Calm,-,N/A,,Clear,0,2012-10-25 22:15:00
6:35 PM,73.4,68.0,83,30.05,9.0,ENE,4.6,-,N/A,,Clear,70,2012-10-25 22:35:00
6:55 PM,73.4,66.2,78,30.05,10.0,NE,5.8,-,N/A,,Clear,50,2012-10-25 22:55:00
7:15 PM,73.4,68.0,83,30.05,10.0,NE,3.5,-,N/A,,Clear,40,2012-10-25 23:15:00
7:35 PM,73.4,68.0,83,30.06,10.0,NE,5.8,-,N/A,,Clear,40,2012-10-25 23:35:00
7:55 PM,71.6,69.8,94,30.06,10.0,NE,4.6,-,N/A,,Clear,50,2012-10-25 23:55:00
8:15 PM,71.6,69.8,94,30.06,10.0,NE,4.6,-,N/A,,Clear,40,2012-10-26 00:15:00
8:35 PM,71.6,69.8,94,30.05,10.0,NE,5.8,-,N/A,,Clear,40,2012-10-26 00:35:00
8:55 PM,71.6,69.8,94,30.05,10.0,Calm,Calm,-,N/A,,Clear,0,2012-10-26 00:55:00
9:15 PM,69.8,68.0,94,30.05,9.0,North,3.5,-,N/A,,Clear,10,2012-10-26 01:15:00
9:35 PM,69.8,68.0,94,30.05,8.0,North,3.5,-,N/A,,Clear,10,2012-10-26 01:35:00
9:55 PM,69.8,66.2,88,30.05,7.0,NNE,3.5,-,N/A,,Clear,20,2012-10-26 01:55:00
10:15 PM,69.8,68.0,94,30.05,7.0,Calm,Calm,-,N/A,,Clear,0,2012-10-26 02:15:00
10:35 PM,69.8,68.0,94,30.04,7.0,Calm,Calm,-,N/A,,Clear,0,2012-10-26 02:35:00
10:55 PM,68.0,68.0,100,30.04,7.0,NNE,4.6,-,N/A,,Clear,30,2012-10-26 02:55:00
11:15 PM,68.0,68.0,100,30.04,6.0,NNE,4.6,-,N/A,,Clear,30,2012-10-26 03:15:00
11:35 PM,68.0,68.0,100,30.03,5.0,NNE,4.6,-,N/A,,Clear,30,2012-10-26 03:35:00